Location: Bachas
(43.2439°N, 0.9375°E)
Time: 18:33:53
(UTC+00:00)

Cosmos 2100 Rocket - Pass Details

Date: 18 February 2020
Orbit: 955 x 1002 km, 82.9° (Epoch: 31 March)

Event Time Altitude Azimuth Distance (km) Brightness Sun altitude
Rises 05:19:57 0° 351° (N) 3,684 6.9 -17.2°
Reaches altitude 10° 05:22:28 10° 351° (N) 2,725 6.2 -16.7°
Maximum altitude 05:28:43 84° 264° (W) 975 3.9 -15.6°
Drops below altitude 10° 05:34:51 10° 177° (S) 2,681 6.4 -14.5°
Sets 05:37:20 0° 177° (S) 3,620 7.1 -14.0°
